Location: Newark
(30.0333°N, 31.2167°E)
Time: 10:41:57
(UTC+00:00)

Courier 1B Rocket - Visible Passes

Search period start: 25 January 2020 00:00
Search period end: 04 February 2020 00:00
Orbit: 920 x 1202 km, 28.2° (Epoch: 24 January)

Date Brightness Start Highest point End Pass type
(mag) Time Alt. Az. Time Alt. Az. Time Alt. Az.
30 Jan 8.0 04:02:23 10° SSE 04:05:03 12° SSE 04:07:43 10° SE visible
01 Feb 7.7 03:50:55 10° S 03:56:00 19° SSE 04:01:05 10° ESE visible
02 Feb 7.8 02:52:10 10° SSE 02:54:57 12° SSE 02:57:46 10° SE visible
03 Feb 7.2 03:40:42 10° SSW 03:46:57 27° SSE 03:53:14 10° E visible
